TimeEDT,TemperatureF,Dew PointF,Humidity,Sea Level PressureIn,VisibilityMPH,Wind Direction,Wind SpeedMPH,Gust SpeedMPH,PrecipitationIn,Events,Conditions,WindDirDegrees,DateUTC
12:10 AM,46.4,44.6,93,29.87,2.5,West,4.6,-,0.02,Rain,Light Rain,270,2013-04-11 04:10:00
12:31 AM,46.4,44.6,93,29.88,3.0,West,4.6,-,0.03,Rain,Light Rain,260,2013-04-11 04:31:00
12:52 AM,46.0,43.0,89,29.89,4.0,West,3.5,-,0.04,,Overcast,280,2013-04-11 04:52:00
1:52 AM,45.0,42.1,90,29.89,4.0,WNW,5.8,-,N/A,,Overcast,300,2013-04-11 05:52:00
2:31 AM,44.6,42.8,93,29.86,2.5,West,4.6,-,0.01,,Overcast,260,2013-04-11 06:31:00
2:44 AM,44.6,41.0,87,29.86,3.0,WSW,4.6,-,0.01,,Overcast,240,2013-04-11 06:44:00
2:52 AM,44.1,41.0,89,29.88,2.5,West,4.6,-,0.01,,Overcast,260,2013-04-11 06:52:00
3:00 AM,44.6,41.0,87,29.87,3.0,WSW,4.6,-,N/A,,Overcast,250,2013-04-11 07:00:00
3:31 AM,44.6,41.0,87,29.88,4.0,West,3.5,-,0.01,,Overcast,260,2013-04-11 07:31:00
3:52 AM,44.1,41.0,89,29.88,4.0,West,5.8,-,0.01,,Overcast,270,2013-04-11 07:52:00
4:52 AM,43.0,39.9,89,29.91,10.0,West,5.8,-,N/A,,Overcast,270,2013-04-11 08:52:00
5:52 AM,42.1,37.9,85,29.94,4.0,Variable,3.5,-,N/A,,Overcast,0,2013-04-11 09:52:00
6:17 AM,42.8,37.4,81,29.94,7.0,Variable,4.6,-,N/A,,Overcast,0,2013-04-11 10:17:00
6:52 AM,41.0,36.0,82,29.98,9.0,West,5.8,-,N/A,,Overcast,280,2013-04-11 10:52:00
7:52 AM,39.9,33.1,77,29.98,10.0,Variable,5.8,-,N/A,,Overcast,0,2013-04-11 11:52:00
8:29 AM,39.2,30.2,70,29.98,10.0,WNW,5.8,-,N/A,,Overcast,300,2013-04-11 12:29:00
8:52 AM,39.9,30.9,70,30.00,10.0,West,6.9,-,N/A,,Overcast,270,2013-04-11 12:52:00
10:29 AM,41.0,30.2,65,30.03,10.0,WNW,4.6,-,N/A,,Overcast,290,2013-04-11 14:29:00
11:52 AM,42.1,30.0,62,30.06,10.0,WNW,8.1,-,N/A,,Overcast,290,2013-04-11 15:52:00
12:52 PM,42.1,28.9,60,30.07,10.0,West,8.1,-,N/A,,Overcast,280,2013-04-11 16:52:00
1:52 PM,39.9,27.0,60,30.07,10.0,West,9.2,17.3,N/A,,Overcast,280,2013-04-11 17:52:00
2:52 PM,41.0,28.0,60,30.06,10.0,West,6.9,-,N/A,,Overcast,270,2013-04-11 18:52:00
3:52 PM,41.0,25.0,53,30.06,10.0,West,8.1,-,N/A,,Overcast,270,2013-04-11 19:52:00
5:52 PM,37.0,26.1,65,30.09,10.0,West,9.2,-,N/A,,Overcast,270,2013-04-11 21:52:00
6:52 PM,36.0,27.0,70,30.11,10.0,West,6.9,-,N/A,,Overcast,280,2013-04-11 22:52:00
7:52 PM,36.0,27.0,70,30.09,10.0,Calm,Calm,-,N/A,,Overcast,0,2013-04-11 23:52:00
8:52 PM,34.0,28.9,82,30.12,8.0,Calm,Calm,-,0.02,Rain,Light Rain,0,2013-04-12 00:52:00
9:52 PM,35.1,30.9,85,30.14,10.0,WNW,3.5,-,0.01,,Overcast,300,2013-04-12 01:52:00
10:52 PM,35.1,30.0,82,30.13,10.0,Calm,Calm,-,N/A,,Overcast,0,2013-04-12 02:52:00
11:52 PM,35.1,30.0,82,30.12,10.0,WNW,3.5,-,N/A,,Overcast,300,2013-04-12 03:52:00